N1NSI Weather Reports


Display with metric or nautical units.
time (UTC)temp
F
wind
direction
speed
MPH
gust
MPH
rain 1hr
in
rain 24hr
in
rain mn
in
humidity
%
barometer
mb
20180222145004 37 36 0.0 2.0 0.00 0.00 0.00 49 1038.4
20180222144505 37 32 0.0 2.0 0.00 0.00 0.00 47 1038.4
20180222144005 36 30 0.0 2.0 0.00 0.00 0.00 53 1038.9
20180222143505 36 31 0.0 2.0 0.00 0.00 0.00 53 1038.9
20180222143005 36 31 0.0 2.0 0.00 0.00 0.00 49 1038.9
20180222142504 36 30 0.0 1.0 0.00 0.00 0.00 48 1039.2
20180222142005 36 30 0.0 1.0 0.00 0.00 0.00 50 1039.2
20180222141506 36 30 0.0 2.0 0.00 0.00 0.00 52 1039.2
20180222141007 36 31 0.0 2.0 0.00 0.00 0.00 59 1038.8
20180222140504 36 31 0.0 2.0 0.00 0.00 0.00 58 1038.8
20180222140004 36 31 0.0 1.0 0.00 0.00 0.00 58 1038.8
20180222135505 36 31 0.0 1.0 0.00 0.00 0.00 56 1038.4
20180222135004 36 31 0.0 2.0 0.00 0.00 0.00 52 1038.4
20180222134505 35 31 0.0 2.0 0.00 0.00 0.00 52 1038.4
20180222134004 35 31 0.0 2.0 0.00 0.00 0.00 54 1038.1
20180222133504 35 31 0.0 1.0 0.00 0.00 0.00 51 1038.1
20180222133005 35 30 0.0 2.0 0.00 0.00 0.00 52 1038.1
20180222132504 35 31 0.0 2.0 0.00 0.00 0.00 56 1037.9
20180222132004 35 15 0.0 1.0 0.00 0.00 0.00 55 1037.9
20180222131504 35 344 0.0 1.0 0.00 0.00 0.00 53 1037.9
20180222131004 35 302 0.0 1.0 0.00 0.00 0.00 57 1037.9
20180222130504 35 302 0.0 1.0 0.00 0.00 0.00 56 1037.9
20180222130004 35 0 0.0 0.0 0.00 0.00 0.00 56 1037.8
20180222125504 35 0 0.0 0.0 0.00 0.00 0.00 53 1037.8
20180222125005 35 0 0.0 0.0 0.00 0.00 0.00 54 1037.8
20180222124505 35 302 0.0 1.0 0.00 0.00 0.00 56 1037.8
20180222124004 35 302 0.0 1.0 0.00 0.00 0.00 56 1037.8
20180222123504 35 0 0.0 0.0 0.00 0.00 0.00 58 1037.8
20180222123005 35 302 0.0 1.0 0.00 0.00 0.00 57 1037.8
20180222122505 35 301 0.0 1.0 0.00 0.00 0.00 56 1037.4
20180222122004 35 316 0.0 2.0 0.00 0.00 0.00 59 1037.5
20180222121504 35 333 1.0 2.0 0.00 0.00 0.00 58 1037.5
20180222121004 35 342 1.0 2.0 0.00 0.00 0.00 58 1037.4
20180222120504 35 346 0.0 2.0 0.00 0.00 0.00 55 1037.3
20180222120005 35 350 0.0 2.0 0.00 0.00 0.00 56 1037.4
20180222115504 35 351 0.0 2.0 0.00 0.00 0.00 52 1037.1
20180222115005 35 355 0.0 1.0 0.00 0.00 0.00 54 1037.1
20180222114504 35 355 0.0 1.0 0.00 0.00 0.00 55 1037.1
20180222114004 35 2 0.0 2.0 0.00 0.00 0.00 55 1036.9
20180222113504 35 22 0.0 4.0 0.00 0.00 0.00 52 1036.9
20180222113006 35 44 0.0 4.0 0.00 0.00 0.00 53 1036.9
20180222112505 35 44 0.0 1.0 0.00 0.00 0.00 52 1036.8
20180222112004 35 12 1.0 2.0 0.00 0.00 0.00 54 1036.8
20180222111504 35 323 1.0 4.0 0.00 0.00 0.00 53 1036.8
20180222111004 35 309 1.0 4.0 0.00 0.00 0.00 55 1036.8
20180222110504 35 310 1.0 2.0 0.00 0.00 0.00 55 1036.8
20180222110004 35 319 1.0 4.0 0.00 0.00 0.00 56 1036.8
20180222105504 35 323 1.0 4.0 0.00 0.00 0.00 54 1036.7
20180222105005 35 308 1.0 6.0 0.00 0.00 0.00 51 1036.7
20180222104504 35 292 1.0 6.0 0.00 0.00 0.00 50 1036.7
20180222104004 36 280 0.0 2.0 0.00 0.00 0.00 53 1036.7
20180222103504 36 283 0.0 2.0 0.00 0.00 0.00 52 1036.7
20180222103004 36 303 0.0 2.0 0.00 0.00 0.00 52 1036.7
20180222102504 36 306 1.0 2.0 0.00 0.00 0.00 52 1036.3
20180222102004 36 309 1.0 4.0 0.00 0.00 0.00 53 1036.3
20180222101504 36 313 1.0 4.0 0.00 0.00 0.00 52 1036.3
20180222101004 36 312 1.0 2.0 0.00 0.00 0.00 52 1035.8
20180222100504 36 307 1.0 2.0 0.00 0.00 0.00 54 1035.8
20180222100006 36 328 1.0 4.0 0.00 0.00 0.00 56 1035.9
20180222095504 36 345 2.0 4.0 0.00 0.00 0.00 53 1035.9
20180222095004 36 350 2.0 6.0 0.00 0.00 0.00 52 1035.9
20180222094504 36 341 1.0 6.0 0.00 0.00 0.00 54 1035.9
20180222094004 36 332 1.0 2.0 0.00 0.00 0.00 59 1035.5
20180222093504 36 332 1.0 4.0 0.00 0.00 0.00 60 1035.5
20180222093005 36 321 1.0 6.0 0.00 0.00 0.00 59 1035.5
20180222092504 36 309 2.0 6.0 0.00 0.00 0.00 61 1035.4
20180222092004 36 315 2.0 7.0 0.00 0.00 0.00 59 1035.4
20180222091504 36 323 2.0 7.0 0.00 0.00 0.00 57 1035.4
20180222091004 36 329 2.0 4.0 0.00 0.00 0.00 58 1035.2
20180222090509 36 330 2.0 6.0 0.00 0.00 0.00 59 1035.2
20180222090004 36 328 1.0 6.0 0.00 0.00 0.00 62 1035.2
20180222085505 36 329 1.0 4.0 0.00 0.00 0.00 63 1035.3
20180222085004 36 321 0.0 2.0 0.00 0.00 0.00 63 1035.3
20180222084505 37 321 1.0 2.0 0.00 0.00 0.00 63 1035.3
20180222084004 37 322 0.0 2.0 0.00 0.00 0.00 63 1035.2
20180222083504 37 321 0.0 2.0 0.00 0.00 0.00 63 1035.2
20180222083004 37 321 1.0 2.0 0.00 0.00 0.00 61 1035.2
20180222082505 37 321 1.0 2.0 0.00 0.00 0.00 61 1035.1
20180222082004 37 321 1.0 2.0 0.00 0.00 0.00 62 1035.1
20180222081504 37 319 1.0 2.0 0.00 0.00 0.00 61 1035.1
20180222081004 37 318 1.0 2.0 0.00 0.00 0.00 61 1034.8
20180222080504 37 319 1.0 4.0 0.00 0.00 0.00 62 1034.8
20180222080004 37 318 1.0 4.0 0.00 0.00 0.00 62 1034.8
20180222075506 38 316 1.0 4.0 0.00 0.00 0.00 62 1035.0
20180222075004 38 317 1.0 4.0 0.00 0.00 0.00 61 1035.0
20180222074504 38 328 1.0 4.0 0.00 0.00 0.00 61 1035.0
20180222074004 38 330 1.0 4.0 0.00 0.00 0.00 60 1034.8
20180222073504 38 330 1.0 4.0 0.00 0.00 0.00 59 1034.8
20180222073003 38 325 1.0 4.0 0.00 0.00 0.00 59 1034.8
20180222072504 38 329 1.0 4.0 0.00 0.00 0.00 57 1034.4
20180222072004 38 332 1.0 4.0 0.00 0.00 0.00 59 1034.4
20180222071504 38 331 1.0 4.0 0.00 0.00 0.00 60 1034.4
20180222071004 38 333 1.0 7.0 0.00 0.00 0.00 59 1034.0
20180222070504 38 333 2.0 7.0 0.00 0.00 0.00 58 1034.0
20180222070004 39 342 1.0 6.0 0.00 0.00 0.00 60 1034.0
20180222065503 39 342 1.0 4.0 0.00 0.00 0.00 57 1034.0
20180222065004 39 329 1.0 4.0 0.00 0.00 0.00 58 1034.0
20180222064504 39 341 1.0 7.0 0.00 0.00 0.00 58 1034.0
20180222064004 39 334 2.0 7.0 0.00 0.00 0.00 57 1033.8
20180222063504 39 326 2.0 7.0 0.00 0.00 0.00 58 1033.8
20180222063004 39 333 2.0 7.0 0.00 0.00 0.00 58 1033.8
20180222062504 39 333 2.0 7.0 0.00 0.00 0.00 59 1033.5
20180222062004 39 327 2.0 6.0 0.00 0.00 0.00 60 1033.5
20180222061505 40 332 2.0 6.0 0.00 0.00 0.00 58 1033.5
20180222061004 40 332 3.0 7.0 0.00 0.00 0.00 58 1033.2
20180222060505 40 331 3.0 7.0 0.00 0.00 0.00 58 1033.2
20180222060004 40 335 3.0 7.0 0.00 0.00 0.00 57 1033.2
20180222055504 40 341 2.0 7.0 0.00 0.00 0.00 58 1032.9
20180222055004 40 344 2.0 7.0 0.00 0.00 0.00 58 1032.9
20180222054504 41 339 3.0 7.0 0.00 0.00 0.00 56 1032.9
20180222054004 41 330 3.0 9.0 0.00 0.00 0.00 56 1032.7
20180222053504 41 326 3.0 9.0 0.00 0.00 0.00 56 1032.7
20180222053004 41 331 3.0 9.0 0.00 0.00 0.00 55 1032.7
20180222052504 41 334 3.0 7.0 0.00 0.00 0.00 55 1032.5
20180222052004 41 338 2.0 7.0 0.00 0.00 0.00 54 1032.5
20180222051505 41 348 1.0 4.0 0.00 0.00 0.00 54 1032.5
20180222051004 41 354 1.0 4.0 0.00 0.00 0.00 54 1031.8
20180222050504 41 13 1.0 4.0 0.00 0.00 0.00 54 1031.8
20180222050005 42 10 1.0 4.0 0.00 0.00 0.00 53 1031.7
20180222045504 42 331 1.0 6.0 0.00 0.00 0.00 53 1031.5
20180222045004 42 319 1.0 6.0 0.00 0.00 0.00 52 1031.5
20180222044507 42 319 1.0 4.0 0.00 0.00 0.00 53 1031.5
20180222044006 42 311 1.0 4.0 0.00 0.00 0.00 53 1030.9
20180222043504 42 288 0.0 2.0 0.00 0.00 0.00 52 1030.9
20180222043004 42 286 0.0 2.0 0.00 0.00 0.00 52 1030.9
20180222042503 43 282 0.0 2.0 0.00 0.00 0.00 50 1030.4
20180222042004 43 271 0.0 2.0 0.00 0.00 0.00 49 1030.4
20180222041504 43 275 0.0 2.0 0.00 0.00 0.00 50 1030.4
20180222041004 43 269 1.0 4.0 0.00 0.00 0.00 49 1030.0
20180222040504 43 256 1.0 4.0 0.00 0.00 0.00 50 1030.0
20180222040005 43 245 1.0 2.0 0.00 0.00 0.00 50 1029.9
20180222035504 43 246 1.0 2.0 0.00 0.00 0.00 50 1029.5
20180222035003 43 255 1.0 6.0 0.00 0.00 0.00 49 1029.5
20180222034504 43 251 1.0 6.0 0.00 0.00 0.00 51 1029.5
20180222034003 44 226 1.0 4.0 0.00 0.00 0.00 50 1029.2
20180222033504 44 231 0.0 4.0 0.00 0.00 0.00 48 1029.2
20180222033004 44 217 0.0 2.0 0.00 0.00 0.00 50 1029.2
20180222032504 44 234 1.0 2.0 0.00 0.00 0.00 51 1029.1
20180222032004 44 260 1.0 4.0 0.00 0.00 0.00 52 1029.1
20180222031505 44 313 2.0 6.0 0.00 0.00 0.00 52 1029.1
20180222031005 44 301 2.0 6.0 0.00 0.00 0.00 52 1029.0
20180222030504 44 264 1.0 4.0 0.00 0.00 0.00 53 1029.0
20180222030005 44 231 1.0 4.0 0.00 0.00 0.00 54 1028.9
20180222025504 44 256 1.0 6.0 0.00 0.00 0.00 57 1028.7
20180222025004 45 276 1.0 6.0 0.00 0.00 0.00 58 1028.8
20180222024504 45 273 1.0 4.0 0.00 0.00 0.00 61 1028.8
20180222024004 45 236 0.0 4.0 0.00 0.00 0.00 64 1028.4
20180222023504 45 236 1.0 2.0 0.00 0.00 0.00 65 1028.4
20180222023004 46 244 0.0 2.0 0.00 0.00 0.00 66 1028.4
20180222022504 46 263 0.0 2.0 0.00 0.00 0.00 67 1028.2
20180222022004 46 266 0.0 1.0 0.00 0.00 0.00 67 1028.2
20180222021504 47 267 0.0 1.0 0.00 0.00 0.00 66 1028.2
20180222021004 47 267 0.0 1.0 0.00 0.00 0.00 67 1028.2
20180222020503 47 0 0.0 0.0 0.00 0.00 0.00 68 1028.2
20180222020004 47 0 0.0 0.0 0.00 0.00 0.00 69 1027.9
20180222015504 47 267 0.0 1.0 0.00 0.00 0.00 69 1027.9
20180222015004 47 267 0.0 1.0 0.00 0.00 0.00 69 1027.9
20180222014504 48 276 0.0 4.0 0.00 0.00 0.00 70 1027.9
20180222014004 48 283 0.0 4.0 0.00 0.00 0.00 70 1027.8
20180222013504 48 310 0.0 2.0 0.00 0.00 0.00 70 1027.8
20180222013004 48 310 1.0 2.0 0.00 0.00 0.00 71 1027.8
20180222012504 48 310 1.0 2.0 0.00 0.00 0.00 71 1027.2
20180222012004 48 311 1.0 4.0 0.00 0.00 0.00 71 1027.2
20180222011504 49 318 1.0 4.0 0.00 0.00 0.00 71 1027.2
20180222011003 49 325 1.0 2.0 0.00 0.00 0.00 72 1026.9
20180222010504 49 325 1.0 2.0 0.00 0.00 0.00 73 1026.9
20180222010003 50 325 1.0 4.0 0.00 0.00 0.00 73 1026.8
20180222005504 50 326 2.0 6.0 0.00 0.00 0.00 72 1026.4
20180222005003 50 328 2.0 6.0 0.00 0.00 0.00 73 1026.4
20180222004504 50 325 2.0 4.0 0.00 0.00 0.00 73 1026.4
20180222004004 51 325 2.0 7.0 0.00 0.00 0.00 74 1026.3
20180222003504 51 343 2.0 7.0 0.00 0.00 0.00 74 1026.3
20180222003004 51 346 2.0 7.0 0.00 0.00 0.00 75 1026.3
20180222002505 52 347 3.0 7.0 0.00 0.00 0.00 75 1025.9
20180222002004 52 356 3.0 7.0 0.00 0.00 0.00 77 1025.9
20180222001505 52 355 2.0 7.0 0.00 0.00 0.00 79 1025.9
20180222001004 53 331 2.0 7.0 0.00 0.00 0.00 77 1025.3
20180222000504 53 326 4.0 9.0 0.00 0.00 0.00 77 1025.3
20180222000004 54 330 5.0 9.0 0.00 0.00 0.00 78 1025.3
20180221235504 54 334 5.0 9.0 0.00 0.00 0.00 77 1024.6
20180221235004 55 339 4.0 7.0 0.00 0.00 0.00 75 1024.6
20180221234504 55 340 3.0 7.0 0.00 0.00 0.00 75 1024.6
20180221234004 55 313 1.0 4.0 0.00 0.00 0.00 75 1023.7
20180221233504 55 297 0.0 2.0 0.00 0.00 0.00 75 1023.7
20180221233004 55 300 1.0 4.0 0.00 0.00 0.00 74 1023.7
20180221232504 55 324 1.0 6.0 0.00 0.00 0.00 73 1023.2
20180221232004 55 321 2.0 6.0 0.00 0.00 0.00 72 1023.2
20180221231504 56 293 2.0 9.0 0.00 0.00 0.00 73 1023.2
20180221231004 56 300 3.0 9.0 0.00 0.00 0.00 73 1022.4
20180221230504 56 306 3.0 8.0 0.00 0.00 0.00 71 1022.4
20180221230004 56 306 5.0 9.0 0.00 0.00 0.00 70 1022.4
20180221225504 56 306 5.0 13.0 0.00 0.00 0.00 69 1022.0
20180221225004 57 305 6.0 13.0 0.00 0.00 0.00 70 1022.0
20180221224504 57 306 5.0 10.0 0.00 0.00 0.00 68 1022.0
20180221224004 58 310 5.0 13.0 0.00 0.00 0.00 68 1021.5
20180221223504 59 313 4.0 13.0 0.00 0.00 0.00 67 1021.5
20180221223004 60 310 4.0 8.0 0.00 0.00 0.00 66 1021.6
20180221222504 61 306 4.0 9.0 0.00 0.00 0.00 65 1020.5
20180221222004 61 302 5.0 9.0 0.00 0.00 0.00 64 1020.5
20180221221504 62 304 4.0 8.0 0.00 0.00 0.00 62 1020.6
20180221221004 62 288 2.0 8.0 0.00 0.00 0.00 64 1019.6
20180221220504 63 266 2.0 6.0 0.00 0.00 0.00 65 1019.6
20180221220004 63 251 2.0 6.0 0.00 0.00 0.00 64 1019.6
20180221215504 63 216 1.0 6.0 0.00 0.00 0.00 63 1019.3
20180221215004 63 227 1.0 4.0 0.00 0.00 0.00 63 1019.3
20180221214504 64 257 2.0 6.0 0.00 0.00 0.00 63 1019.3
20180221214004 64 260 3.0 7.0 0.00 0.00 0.00 63 1018.9
20180221213504 64 249 2.0 7.0 0.00 0.00 0.00 62 1018.9
20180221213004 64 220 0.0 2.0 0.00 0.00 0.00 63 1018.9
20180221212504 64 233 0.0 2.0 0.00 0.00 0.00 61 1018.6
20180221212004 65 239 1.0 4.0 0.00 0.00 0.00 61 1018.6
20180221211504 65 231 1.0 4.0 0.00 0.00 0.00 59 1018.6
20180221211004 65 207 1.0 4.0 0.00 0.00 0.00 62 1018.3
20180221210505 65 195 1.0 4.0 0.00 0.00 0.00 62 1018.3
20180221210004 66 185 1.0 4.0 0.00 0.00 0.00 61 1018.3
20180221205504 66 174 1.0 2.0 0.00 0.00 0.00 61 1018.4
20180221205004 66 174 1.0 2.0 0.00 0.00 0.00 61 1018.4
20180221204505 66 172 1.0 2.0 0.00 0.00 0.00 61 1018.4
20180221204004 66 166 0.0 2.0 0.00 0.00 0.00 62 1017.9
20180221203504 66 164 0.0 2.0 0.00 0.00 0.00 63 1017.9
20180221203004 66 164 0.0 2.0 0.00 0.00 0.00 59 1017.9
20180221202504 66 172 0.0 2.0 0.00 0.00 0.00 60 1017.7
20180221202003 66 174 1.0 4.0 0.00 0.00 0.00 61 1017.8
20180221201505 66 186 1.0 6.0 0.00 0.00 0.00 60 1017.8
20180221201003 66 195 1.0 6.0 0.00 0.00 0.00 62 1017.8
20180221200504 66 192 1.0 4.0 0.00 0.00 0.00 62 1017.8
20180221200004 66 187 1.0 4.0 0.00 0.00 0.00 62 1017.8
20180221195504 66 177 1.0 4.0 0.00 0.00 0.00 63 1017.7
20180221195004 66 181 1.0 4.0 0.00 0.00 0.00 63 1017.7
20180221194504 66 211 0.0 2.0 0.00 0.00 0.00 63 1017.7
20180221194004 66 224 1.0 2.0 0.00 0.00 0.00 63 1017.7
20180221193504 66 213 1.0 4.0 0.00 0.00 0.00 61 1017.7
20180221193005 66 198 1.0 4.0 0.00 0.00 0.00 63 1017.7
20180221192504 66 191 1.0 2.0 0.00 0.00 0.00 62 1017.7
20180221192004 66 189 0.0 2.0 0.00 0.00 0.00 62 1017.8
20180221191504 66 195 0.0 2.0 0.00 0.00 0.00 63 1017.8
20180221191004 66 197 0.0 2.0 0.00 0.00 0.00 65 1017.8
20180221190504 66 198 0.0 1.0 0.00 0.00 0.00 65 1017.8
20180221190004 66 199 0.0 2.0 0.00 0.00 0.00 65 1017.8
20180221185504 66 187 0.0 2.0 0.00 0.00 0.00 64 1018.0
20180221185003 66 197 1.0 2.0 0.00 0.00 0.00 65 1018.0
20180221184504 65 207 1.0 2.0 0.00 0.00 0.00 65 1018.0
20180221184004 65 210 0.0 2.0 0.00 0.00 0.00 66 1018.3
20180221183504 65 184 0.0 6.0 0.00 0.00 0.00 67 1018.3
20180221183004 64 197 1.0 6.0 0.00 0.00 0.00 69 1018.3
20180221182504 64 215 1.0 6.0 0.00 0.00 0.00 71 1018.4
20180221182004 63 226 1.0 6.0 0.00 0.00 0.00 72 1018.4
20180221181504 62 222 1.0 6.0 0.00 0.00 0.00 72 1018.4
20180221181004 62 202 2.0 6.0 0.00 0.00 0.00 73 1018.5
20180221180504 61 192 2.0 6.0 0.00 0.00 0.00 73 1018.5
20180221180004 61 204 2.0 6.0 0.00 0.00 0.00 74 1018.5
20180221175506 60 209 2.0 6.0 0.00 0.00 0.00 76 1018.6
20180221175005 60 193 2.0 6.0 0.00 0.00 0.00 77 1018.6
20180221174504 60 196 2.0 6.0 0.00 0.00 0.00 77 1018.6
20180221174004 60 201 2.0 6.0 0.00 0.00 0.00 75 1019.0
20180221173504 59 197 2.0 6.0 0.00 0.00 0.00 77 1019.0
20180221173004 59 196 3.0 6.0 0.00 0.00 0.00 78 1019.0
20180221172504 59 198 3.0 6.0 0.00 0.00 0.00 78 1019.4
20180221172004 59 202 3.0 6.0 0.00 0.00 0.00 80 1019.4
20180221171504 59 198 2.0 7.0 0.00 0.00 0.00 79 1019.4
20180221171004 58 197 2.0 7.0 0.00 0.00 0.00 82 1019.9
20180221170503 58 195 2.0 4.0 0.00 0.00 0.00 85 1019.9
20180221170004 58 191 1.0 4.0 0.00 0.00 0.00 87 1019.9
20180221165504 58 188 1.0 4.0 0.00 0.00 0.00 90 1020.1
20180221165004 57 190 1.0 4.0 0.00 0.00 0.00 93 1020.1
20180221164504 57 195 1.0 4.0 0.00 0.00 0.00 95 1020.1
20180221164003 57 204 1.0 6.0 0.00 0.00 0.00 96 1020.3
20180221163504 56 210 1.0 7.0 0.00 0.00 0.00 97 1020.3
20180221163004 56 210 1.0 7.0 0.00 0.00 0.00 97 1020.3
20180221162506 56 208 1.0 7.0 0.00 0.00 0.00 97 1020.5
20180221162004 56 209 0.0 4.0 0.00 0.00 0.00 97 1020.5
20180221161504 56 203 0.0 2.0 0.00 0.00 0.00 97 1020.5
20180221161004 56 211 1.0 4.0 0.00 0.00 0.00 97 1020.8
20180221160504 55 222 0.0 4.0 0.00 0.00 0.00 97 1020.8
20180221160005 55 221 0.0 4.0 0.00 0.00 0.00 97 1020.8
20180221155504 54 207 0.0 4.0 0.00 0.00 0.00 97 1021.1
20180221155004 54 192 0.0 2.0 0.00 0.00 0.00 97 1021.1
20180221154504 54 137 0.0 2.0 0.00 0.00 0.00 97 1021.1
20180221154005 53 214 0.0 4.0 0.00 0.00 0.00 97 1021.4
20180221153504 52 245 0.0 4.0 0.00 0.00 0.00 97 1021.4
20180221153004 52 226 0.0 4.0 0.00 0.00 0.00 97 1021.4
20180221152504 50 194 0.0 4.0 0.00 0.00 0.00 97 1021.6
20180221152004 49 105 0.0 1.0 0.00 0.00 0.00 97 1021.6
20180221151505 48 120 0.0 2.0 0.00 0.00 0.00 97 1021.6
20180221151004 47 125 0.0 2.0 0.00 0.00 0.00 97 1021.7
20180221150504 46 62 0.0 1.0 0.00 0.00 0.00 97 1021.7
20180221150004 45 62 0.0 1.0 0.00 0.00 0.00 97 1021.7
20180221145504 45 51 0.0 2.0 0.00 0.00 0.00 97 1021.9